Home > Weather > Dayton > Past weeks

Flag for USA Past Weather in Dayton, Ohio, USA — Yesterday and Last 2 Weeks

Now
90 °F

Sunny.


Feels Like: 92 °F
Forecast: 76 / 92 °F
Wind: 10 mph from Northwest

Location: Dayton / Wright-Patterson Air Force Base

Current Time: Jul 25, 2016 at 6:10:18 PM

Latest Report: Jul 25, 2016 at 4:58 PM


Visibility: 10 mi

Pressure: 29.94 "Hg

Humidity: 44%

Dew Point: 65 °F

Location of DaytonLocation

Past Weather in Dayton — Graph

°F

Dayton Temperature Yesterday

Maximum temperature yesterday: 93 °F (at 3:58 PM)
Minimum temperature yesterday: 74 °F (at 6:58 AM)
Average temperature yesterday: 84 °F

High & Low Weather Summary for the Past Weeks

 TemperatureHumidityPressure
High93 °F (Jul 24, 3:58 PM)100% (Jul 13, 3:58 AM)30.27 "Hg (Jul 13, 3:58 AM)
Low61 °F (Jul 17, 6:58 AM)41% (Jul 10, 4:58 PM)29.89 "Hg (Jul 14, 6:58 PM)
Average78 °F75%30.05 "Hg
* Reported Jul 10 4:58 PM — Jul 25 4:58 PM, Dayton, Weather by CustomWeather, © 2016

Note: Actual official high and low records may vary slightly from our data, if they occured in-between our weather recording intervals... More about our weather records

Advertising

Dayton Weather History for the Previous 24 Hours

Scroll right to see more
 ConditionsComfort  
Time TempWeatherWind HumidityBarometerVisibility
4:58 PM
Mon, Jul 25
90 °FSunny.10 mph44%29.94 "Hg10 mi
3:58 PM90 °FPassing clouds.12 mph47%29.96 "Hg10 mi
2:58 PM89 °FSunny.9 mph51%29.96 "Hg10 mi
1:58 PM89 °FPassing clouds.13 mph55%29.98 "Hg10 mi
12:58 PM87 °FSunny.7 mph55%29.99 "Hg10 mi
11:58 AM86 °FSunny.8 mph57%29.99 "Hg10 mi
10:58 AM85 °FPassing clouds.9 mph55%30.01 "Hg10 mi
9:58 AM84 °FSunny.7 mph62%29.99 "Hg10 mi
8:58 AM83 °FSunny.3 mph70%29.97 "Hg10 mi
7:58 AM80 °FSunny.6 mph91%29.97 "Hg10 mi
6:58 AM77 °FClear.6 mph99%29.96 "Hg10 mi
5:58 AM79 °FClear.8 mph95%29.95 "Hg10 mi
4:58 AM78 °FClear.7 mph96%29.96 "Hg10 mi
3:58 AM78 °FPassing clouds.8 mph97%29.96 "Hg10 mi
2:58 AM79 °FPassing clouds.5 mph92%29.97 "Hg10 mi
1:58 AM80 °FPassing clouds.2 mph89%29.97 "Hg10 mi
12:58 AM80 °FClear.1 mph90%29.96 "Hg10 mi
11:58 PM
Sun, Jul 24
80 °FClear.No wind89%29.96 "Hg10 mi
10:58 PM81 °FClear.No wind87%29.96 "Hg10 mi
9:58 PM83 °FClear.1 mph78%29.95 "Hg10 mi
8:58 PM85 °FSunny.2 mph72%29.95 "Hg10 mi
7:58 PM90 °FSunny.3 mph62%29.94 "Hg10 mi
6:58 PM90 °FSunny.8 mph62%29.95 "Hg10 mi
Weather by CustomWeather, © 2016

See weather overviewHow to use our weather pages